Time,TemperatureF,DewpointF,PressureIn,WindDirection,WindDirectionDegrees,WindSpeedMPH,WindSpeedGustMPH,Humidity,HourlyPrecipIn,Conditions,Clouds,dailyrainin,SoftwareType,DateUTC
2013-01-21 00:12:00,-5.7,-10.0,30.23,ENE,69,0.0,-999.0,83,-99.99,,,0.00,weatherlink.com 1.10,2013-01-21 05:12:00,
2013-01-21 00:27:00,-6.0,-10.0,30.22,ENE,69,1.0,-999.0,83,-99.99,,,0.00,weatherlink.com 1.10,2013-01-21 05:27:00,
2013-01-21 00:42:00,-6.5,-10.0,30.21,East,85,1.0,-999.0,83,-99.99,,,0.00,weatherlink.com 1.10,2013-01-21 05:42:00,
2013-01-21 00:58:00,-8.8,-13.0,30.20,East,85,0.0,-999.0,81,-99.99,,,0.00,weatherlink.com 1.10,2013-01-21 05:58:00,
2013-01-21 01:13:00,-7.5,-11.0,30.20,East,94,1.0,-999.0,83,-99.99,,,0.00,weatherlink.com 1.10,2013-01-21 06:13:00,
2013-01-21 01:28:00,-6.6,-10.0,30.19,East,87,1.0,-999.0,83,-99.99,,,0.00,weatherlink.com 1.10,2013-01-21 06:28:00,
2013-01-21 01:43:00,-5.9,-10.0,30.18,East,88,2.0,-999.0,83,-99.99,,,0.00,weatherlink.com 1.10,2013-01-21 06:43:00,
2013-01-21 01:58:00,-4.1,-8.0,30.18,East,88,1.0,-999.0,83,-99.99,,,0.00,weatherlink.com 1.10,2013-01-21 06:58:00,
2013-01-21 02:13:00,-4.3,-8.0,30.18,East,88,0.0,-999.0,83,-99.99,,,0.00,weatherlink.com 1.10,2013-01-21 07:13:00,
2013-01-21 02:28:00,-5.3,-9.0,30.18,East,88,1.0,-999.0,82,-99.99,,,0.00,weatherlink.com 1.10,2013-01-21 07:28:00,
2013-01-21 02:43:00,-4.6,-9.0,30.18,East,88,2.0,-999.0,83,-99.99,,,0.00,weatherlink.com 1.10,2013-01-21 07:43:00,
2013-01-21 02:58:00,-4.7,-9.0,30.17,East,87,1.0,-999.0,82,-99.99,,,0.00,weatherlink.com 1.10,2013-01-21 07:58:00,
2013-01-21 03:13:00,-4.6,-9.0,30.17,East,88,2.0,-999.0,82,-99.99,,,0.00,weatherlink.com 1.10,2013-01-21 08:13:00,
2013-01-21 03:28:00,-5.7,-10.0,30.17,East,87,1.0,-999.0,81,-99.99,,,0.00,weatherlink.com 1.10,2013-01-21 08:28:00,
2013-01-21 03:43:00,-5.4,-10.0,30.16,East,87,0.0,-999.0,82,-99.99,,,0.00,weatherlink.com 1.10,2013-01-21 08:43:00,
2013-01-21 03:58:00,-5.7,-10.0,30.15,East,87,1.0,-999.0,82,-99.99,,,0.00,weatherlink.com 1.10,2013-01-21 08:58:00,
2013-01-21 04:13:00,-4.6,-9.0,30.14,East,88,0.0,-999.0,83,-99.99,,,0.00,weatherlink.com 1.10,2013-01-21 09:13:00,
2013-01-21 04:29:00,-4.0,-8.0,30.13,East,88,0.0,-999.0,82,-99.99,,,0.00,weatherlink.com 1.10,2013-01-21 09:29:00,
2013-01-21 04:44:00,-3.9,-8.0,30.12,East,87,1.0,-999.0,82,-99.99,,,0.00,weatherlink.com 1.10,2013-01-21 09:44:00,
2013-01-21 04:59:00,-3.2,-7.0,30.12,East,87,0.0,-999.0,82,-99.99,,,0.00,weatherlink.com 1.10,2013-01-21 09:59:00,
2013-01-21 05:14:00,-3.9,-8.0,30.12,East,88,2.0,-999.0,82,-99.99,,,0.00,weatherlink.com 1.10,2013-01-21 10:14:00,
2013-01-21 05:29:00,-2.7,-7.0,30.11,SE,140,1.0,-999.0,82,-99.99,,,0.00,weatherlink.com 1.10,2013-01-21 10:29:00,
2013-01-21 05:44:00,-2.0,-6.0,30.11,SSE,148,0.0,-999.0,82,-99.99,,,0.00,weatherlink.com 1.10,2013-01-21 10:44:00,
2013-01-21 05:59:00,-1.6,-6.0,30.10,South,179,4.0,-999.0,81,-99.99,,,0.00,weatherlink.com 1.10,2013-01-21 10:59:00,
2013-01-21 06:14:00,-1.4,-6.0,30.10,WSW,239,0.0,-999.0,81,-99.99,,,0.00,weatherlink.com 1.10,2013-01-21 11:14:00,
2013-01-21 06:29:00,-0.9,-5.0,30.09,South,176,2.0,-999.0,81,-99.99,,,0.00,weatherlink.com 1.10,2013-01-21 11:29:00,
2013-01-21 06:44:00,-0.5,-5.0,30.09,SE,130,0.0,-999.0,80,-99.99,,,0.00,weatherlink.com 1.10,2013-01-21 11:44:00,
2013-01-21 06:59:00,-0.4,-5.0,30.09,SSE,166,1.0,-999.0,80,-99.99,,,0.00,weatherlink.com 1.10,2013-01-21 11:59:00,
2013-01-21 07:15:00,-0.5,-5.0,30.09,SE,126,0.0,-999.0,80,-99.99,,,0.00,weatherlink.com 1.10,2013-01-21 12:15:00,
2013-01-21 07:30:00,-0.7,-5.0,30.09,SSW,196,3.0,-999.0,80,-99.99,,,0.00,weatherlink.com 1.10,2013-01-21 12:30:00,
2013-01-21 07:45:00,-1.1,-6.0,30.08,SE,137,4.0,-999.0,80,-99.99,,,0.00,weatherlink.com 1.10,2013-01-21 12:45:00,
2013-01-21 08:00:00,-1.4,-6.0,30.08,ESE,105,0.0,-999.0,81,-99.99,,,0.00,weatherlink.com 1.10,2013-01-21 13:00:00,
2013-01-21 08:15:00,-1.2,-6.0,30.08,South,169,2.0,-999.0,81,-99.99,,,0.00,weatherlink.com 1.10,2013-01-21 13:15:00,
2013-01-21 08:30:00,-0.8,-5.0,30.08,SSE,154,2.0,-999.0,81,-99.99,,,0.00,weatherlink.com 1.10,2013-01-21 13:30:00,
2013-01-21 08:45:00,-0.5,-5.0,30.07,SSE,157,3.0,-999.0,81,-99.99,,,0.00,weatherlink.com 1.10,2013-01-21 13:45:00,
2013-01-21 09:00:00,-0.3,-5.0,30.07,SE,144,1.0,-999.0,81,-99.99,,,0.00,weatherlink.com 1.10,2013-01-21 14:00:00,
2013-01-21 09:15:00,0.2,-4.0,30.07,SSE,161,4.0,-999.0,82,-99.99,,,0.00,weatherlink.com 1.10,2013-01-21 14:15:00,
2013-01-21 09:30:00,0.5,-4.0,30.07,ESE,121,1.0,-999.0,82,-99.99,,,0.00,weatherlink.com 1.10,2013-01-21 14:30:00,
2013-01-21 09:45:00,1.0,-3.0,30.07,ESE,121,0.0,-999.0,82,-99.99,,,0.00,weatherlink.com 1.10,2013-01-21 14:45:00,
2013-01-21 10:00:00,1.2,-3.0,30.07,ESE,107,3.0,-999.0,81,-99.99,,,0.00,weatherlink.com 1.10,2013-01-21 15:00:00,
2013-01-21 10:15:00,1.3,-3.0,30.07,East,80,5.0,-999.0,81,-99.99,,,0.00,weatherlink.com 1.10,2013-01-21 15:15:00,
2013-01-21 10:31:00,1.4,-3.0,30.06,East,80,2.0,-999.0,81,-99.99,,,0.00,weatherlink.com 1.10,2013-01-21 15:31:00,
2013-01-21 10:46:00,1.8,-3.0,30.05,ENE,72,2.0,-999.0,80,-99.99,,,0.00,weatherlink.com 1.10,2013-01-21 15:46:00,
2013-01-21 11:01:00,2.8,-2.0,30.06,ESE,121,0.0,-999.0,80,-99.99,,,0.00,weatherlink.com 1.10,2013-01-21 16:01:00,
2013-01-21 11:16:00,3.1,-2.0,30.06,SSE,148,2.0,-999.0,79,-99.99,,,0.00,weatherlink.com 1.10,2013-01-21 16:16:00,
2013-01-21 11:31:00,3.3,-2.0,30.05,NE,44,1.0,-999.0,79,-99.99,,,0.00,weatherlink.com 1.10,2013-01-21 16:31:00,
2013-01-21 11:46:00,3.6,-1.0,30.05,NE,37,2.0,-999.0,80,-99.99,,,0.00,weatherlink.com 1.10,2013-01-21 16:46:00,
2013-01-21 12:01:00,4.2,-1.0,30.05,NE,34,3.0,-999.0,80,-99.99,,,0.00,weatherlink.com 1.10,2013-01-21 17:01:00,
2013-01-21 12:16:00,4.6,0.0,30.04,ENE,67,4.0,-999.0,80,-99.99,,,0.00,weatherlink.com 1.10,2013-01-21 17:16:00,
2013-01-21 12:31:00,5.1,0.0,30.03,NE,49,4.0,-999.0,80,-99.99,,,0.00,weatherlink.com 1.10,2013-01-21 17:31:00,
2013-01-21 12:46:00,5.3,0.0,30.03,ENE,73,2.0,-999.0,79,-99.99,,,0.00,weatherlink.com 1.10,2013-01-21 17:46:00,
2013-01-21 13:01:00,6.6,2.0,30.02,NE,52,3.0,-999.0,80,-99.99,,,0.00,weatherlink.com 1.10,2013-01-21 18:01:00,
2013-01-21 13:16:00,7.8,3.0,30.01,NE,52,0.0,-999.0,79,-99.99,,,0.00,weatherlink.com 1.10,2013-01-21 18:16:00,
2013-01-21 13:32:00,7.6,2.0,30.01,NE,52,0.0,-999.0,79,-99.99,,,0.00,weatherlink.com 1.10,2013-01-21 18:32:00,
2013-01-21 13:47:00,8.7,3.0,30.00,NE,46,0.0,-999.0,79,-99.99,,,0.00,weatherlink.com 1.10,2013-01-21 18:47:00,
2013-01-21 14:02:00,8.6,3.0,30.00,NNW,331,3.0,-999.0,79,-99.99,,,0.00,weatherlink.com 1.10,2013-01-21 19:02:00,
2013-01-21 14:17:00,7.3,2.0,30.00,WNW,288,3.0,-999.0,78,-99.99,,,0.00,weatherlink.com 1.10,2013-01-21 19:17:00,
2013-01-21 14:32:00,6.9,2.0,30.00,West,279,3.0,-999.0,80,-99.99,,,0.00,weatherlink.com 1.10,2013-01-21 19:32:00,
2013-01-21 14:47:00,7.3,2.0,30.00,West,279,4.0,-999.0,79,-99.99,,,0.00,weatherlink.com 1.10,2013-01-21 19:47:00,
2013-01-21 15:02:00,8.0,3.0,30.01,West,279,2.0,-999.0,78,-99.99,,,0.00,weatherlink.com 1.10,2013-01-21 20:02:00,
2013-01-21 15:17:00,9.2,3.0,30.01,NW,306,2.0,-999.0,75,-99.99,,,0.00,weatherlink.com 1.10,2013-01-21 20:17:00,
2013-01-21 15:32:00,9.8,3.0,30.01,NW,306,0.0,-999.0,73,-99.99,,,0.00,weatherlink.com 1.10,2013-01-21 20:32:00,
2013-01-21 15:47:00,8.2,2.0,30.02,West,260,4.0,-999.0,74,-99.99,,,0.00,weatherlink.com 1.10,2013-01-21 20:47:00,
2013-01-21 16:02:00,8.7,2.0,30.02,WSW,257,2.0,-999.0,73,-99.99,,,0.00,weatherlink.com 1.10,2013-01-21 21:02:00,
2013-01-21 16:17:00,7.4,1.0,30.02,WSW,257,1.0,-999.0,74,-99.99,,,0.00,weatherlink.com 1.10,2013-01-21 21:17:00,
2013-01-21 16:32:00,8.7,2.0,30.02,West,260,2.0,-999.0,73,-99.99,,,0.00,weatherlink.com 1.10,2013-01-21 21:32:00,
2013-01-21 16:47:00,8.5,0.0,30.03,NNE,22,7.0,-999.0,69,-99.99,,,0.00,weatherlink.com 1.10,2013-01-21 21:47:00,
2013-01-21 17:03:00,7.6,-1.0,30.04,North,9,4.0,-999.0,69,-99.99,,,0.00,weatherlink.com 1.10,2013-01-21 22:03:00,
2013-01-21 17:18:00,6.6,-2.0,30.04,North,360,4.0,-999.0,68,-99.99,,,0.00,weatherlink.com 1.10,2013-01-21 22:18:00,
2013-01-21 17:33:00,5.6,-3.0,30.05,NNE,12,5.0,-999.0,68,-99.99,,,0.00,weatherlink.com 1.10,2013-01-21 22:33:00,
2013-01-21 17:48:00,5.4,-3.0,30.05,NNE,17,6.0,-999.0,68,-99.99,,,0.00,weatherlink.com 1.10,2013-01-21 22:48:00,
2013-01-21 18:03:00,5.3,-3.0,30.06,NNE,14,5.0,-999.0,68,-99.99,,,0.00,weatherlink.com 1.10,2013-01-21 23:03:00,
2013-01-21 18:18:00,4.3,-4.0,30.07,North,355,4.0,-999.0,69,-99.99,,,0.00,weatherlink.com 1.10,2013-01-21 23:18:00,
2013-01-21 18:33:00,4.6,-3.0,30.07,NNW,344,6.0,-999.0,70,-99.99,,,0.00,weatherlink.com 1.10,2013-01-21 23:33:00,
2013-01-21 18:48:00,4.7,-3.0,30.07,NNE,13,7.0,-999.0,69,-99.99,,,0.00,weatherlink.com 1.10,2013-01-21 23:48:00,
2013-01-21 19:03:00,4.8,-4.0,30.08,NNE,29,4.0,-999.0,67,-99.99,,,0.00,weatherlink.com 1.10,2013-01-22 00:03:00,
2013-01-21 19:18:00,4.6,-4.0,30.08,NNE,13,5.0,-999.0,67,-99.99,,,0.00,weatherlink.com 1.10,2013-01-22 00:18:00,
2013-01-21 19:33:00,4.2,-5.0,30.08,NE,51,6.0,-999.0,67,-99.99,,,0.00,weatherlink.com 1.10,2013-01-22 00:33:00,
2013-01-21 19:48:00,4.1,-4.0,30.09,NNE,31,3.0,-999.0,68,-99.99,,,0.00,weatherlink.com 1.10,2013-01-22 00:48:00,
2013-01-21 20:03:00,3.9,-4.0,30.09,NNE,30,1.0,-999.0,70,-99.99,,,0.00,weatherlink.com 1.10,2013-01-22 01:03:00,
2013-01-21 20:18:00,3.8,-4.0,30.09,NNE,30,0.0,-999.0,70,-99.99,,,0.00,weatherlink.com 1.10,2013-01-22 01:18:00,
2013-01-21 20:34:00,4.0,-4.0,30.10,NNW,341,3.0,-999.0,71,-99.99,,,0.00,weatherlink.com 1.10,2013-01-22 01:34:00,
2013-01-21 20:49:00,4.0,-3.0,30.11,NNW,329,1.0,-999.0,72,-99.99,,,0.00,weatherlink.com 1.10,2013-01-22 01:49:00,
2013-01-21 21:04:00,3.8,-3.0,30.11,NNW,329,0.0,-999.0,73,-99.99,,,0.00,weatherlink.com 1.10,2013-01-22 02:04:00,
2013-01-21 21:19:00,3.8,-3.0,30.11,NE,37,3.0,-999.0,74,-99.99,,,0.00,weatherlink.com 1.10,2013-01-22 02:19:00,
2013-01-21 21:34:00,3.6,-3.0,30.12,NNE,24,3.0,-999.0,75,-99.99,,,0.00,weatherlink.com 1.10,2013-01-22 02:34:00,
2013-01-21 21:49:00,3.2,-3.0,30.12,NNE,25,4.0,-999.0,75,-99.99,,,0.00,weatherlink.com 1.10,2013-01-22 02:49:00,
2013-01-21 22:04:00,2.8,-3.0,30.13,NE,43,6.0,-999.0,75,-99.99,,,0.00,weatherlink.com 1.10,2013-01-22 03:04:00,
2013-01-21 22:19:00,2.4,-4.0,30.13,NE,37,2.0,-999.0,76,-99.99,,,0.00,weatherlink.com 1.10,2013-01-22 03:19:00,
2013-01-21 22:34:00,1.7,-5.0,30.14,ENE,57,5.0,-999.0,74,-99.99,,,0.00,weatherlink.com 1.10,2013-01-22 03:34:00,
2013-01-21 22:49:00,1.2,-5.0,30.14,ENE,59,5.0,-999.0,74,-99.99,,,0.00,weatherlink.com 1.10,2013-01-22 03:49:00,
2013-01-21 23:04:00,0.7,-5.0,30.15,NNE,32,5.0,-999.0,76,-99.99,,,0.00,weatherlink.com 1.10,2013-01-22 04:04:00,
2013-01-21 23:19:00,0.2,-6.0,30.15,ENE,71,3.0,-999.0,76,-99.99,,,0.00,weatherlink.com 1.10,2013-01-22 04:19:00,
2013-01-21 23:34:00,-0.3,-6.0,30.15,ENE,61,2.0,-999.0,76,-99.99,,,0.00,weatherlink.com 1.10,2013-01-22 04:34:00,
2013-01-21 23:50:00,-0.7,-7.0,30.16,NNE,30,7.0,-999.0,74,-99.99,,,0.00,weatherlink.com 1.10,2013-01-22 04:50:00,